Weather Roundup
Issued by NWS Chicago, IL

Home | Current Version | Previous Version | Graphics & Text | Print | Product List | Glossary On
Versions: 1 2 3 4 5 6 7 8 9 10 11 12 13 14 15 16 17 18 19 20 21 22 23 24 25 26 27 28 29 30 31 32 33 34 35 36 37 38 39 40 41 42 43 44 45 46 47 48 49 50
000
NZUS59 KLOT 040403
HRRLOT

CHICAGO AREA WEATHER ROUNDUP
NATIONAL WEATHER SERVICE CHICAGO/ROMEOVILLE IL
1100 PM CDT TUE MAY 03 2016

NOTE: "FAIR" INDICATES FEW OR NO CLOUDS BELOW 12,000 FEET WITH NO
SIGNIFICANT WEATHER AND/OR OBSTRUCTIONS TO VISIBILITY.

* THESE STATIONS ARE NOT UNDER NWS QUALITY CONTROL. THEY ALSO MAY NOT
  REPORT WEATHER SUCH AS PRECIPITATION OR FOG.

ILZ005-006-012>014-019>023-040500-
NORTHEAST ILLINOIS

CITY           SKY/WX    TMP DP  RH WIND       PRES   REMARKS
OHARE          CLOUDY    60  40  47 SW10      29.69F
MIDWAY         CLOUDY    61  39  44 SW9       29.71F
AURORA         MOCLDY    58  42  55 SW13      29.71F
LANSING*       CLOUDY    58  41  53 SW9       29.73F
WAUKEGAN       CLOUDY    58  42  55 SW13      29.65F
DUPAGE AIRPORT CLOUDY    57  41  55 SW10      29.69F
WHEELING       CLOUDY    59  40  49 S9        29.69F
$$

WIZ051-052-058>065-066-070>072-040500-
SOUTHEAST WISCONSIN

CITY           SKY/WX    TMP DP  RH WIND       PRES   REMARKS
MILWAUKEE      CLOUDY    59  41  51 SW10      29.62F
KENOSHA*       CLOUDY    59  42  53 SW13      29.64F
RACINE*        CLOUDY    59  40  49 SW9       29.65F
BURLINGTON     CLOUDY    56  41  56 SW9       29.64F
$$

INZ001>003-010>013-019-020-040500-
NORTHWEST INDIANA

CITY           SKY/WX    TMP DP  RH WIND       PRES   REMARKS
GARY*          NOT AVBL
MICHIGAN CITY* NOT AVBL
RENSSELAER*    NOT AVBL
VALPARAISO     CLOUDY    56  42  59 SW8       29.74F
$$

LMZ740>746-040500-
SOUTHERN LAKE MICHIGAN

STATION/POSITION TIME  SKY/WX   TEMP WIND        PRES    VSBY
                                AIR  DIR/SP/G
                 (UTC)          (F)  (DEG/KT/KT) (MB)    (MI)
HARRISON CRIB    0300            63  230/ 15/ 19   N/A
BURNHAM HARBOR   0400            61  220/  7/  9   N/A
CALUMET HARBOR   0300            61  210/  7/ 10 1006.7F
BURNS HARBOR     0300            61  210/ 10/ 13 1008.1F
MICHIGAN CITY    0300            60  180/ 10/ 12   N/A
$$

ABBREVIATIONS USED IN REMARKS
   TC - TEMPERATURE IN CELSIUS
  WCI - WIND CHILL INDEX
   HX - HEAT INDEX
  VSB - VISIBILITY
$$




USA.gov is the U.S. government's official web portal to all federal, state and local government web resources and services.